Location: Bannatyne
(13.0833°N, 59.5333°W)
Time: 16:48:45
(UTC+00:00)

Explorer 7 - Pass Details

Date: 24 January 2020
Orbit: 485 x 679 km, 50.3° (Epoch: 16 February)

Event Time Altitude Azimuth Distance (km) Brightness Sun altitude
Rises 23:53:15 0° 205° (SSW) 2,728 10.9 -28.3°
Reaches altitude 10° 23:55:39 10° 197° (SSW) 1,800 9.8 -28.9°
Enters shadow 23:56:24 15° 193° (SSW) 1,523 9.3 -29.0°
Maximum altitude 23:59:29 39° 127° (SE) 785 - -29.8°
Drops below altitude 10° 00:03:06 10° 57° (ENE) 1,709 - -30.6°
Sets 00:05:19 0° 50° (NE) 2,572 - -31.1°
